Regional Weather Roundup
Issued by NWS Cleveland, OH

Home | Current Version | Previous Version | Text Only | Print | Product List | Glossary Off
Versions: 1 2 3 4 5 6 7 8 9 10 11 12 13 14 15 16 17 18 19 20 21 22 23 24 25 26 27 28 29 30 31 32 33 34 35 36 37 38 39 40 41 42 43 44 45 46 47 48 49 50

000
ASUS41 KCLE 300602
RWRCLE
OHIO REGIONAL WEATHER ROUNDUP
NATIONAL WEATHER SERVICE CLEVELAND, OH
200 AM EDT TUE SEP 30 2014

NOTE: "FAIR" INDICATES FEW OR NO CLOUDS BELOW 12,000 FEET WITH NO
SIGNIFICANT WEATHER AND/OR OBSTRUCTIONS TO VISIBILITY.

OHZ001>008-015>018-024>027-034-035-043-044-300700-
   NORTHWEST OHIO

CITY           SKY/WX    TMP DP  RH WIND       PRES   REMARKS
DEFIANCE       CLEAR     59  54  83 CALM      29.91R
FINDLAY        CLEAR     57  51  80 S5        29.88F
TOLEDO EXPRESS CLOUDY    62  55  77 W6        29.88S
TOLEDO EXEC    MOCLDY    61  54  77 W3        29.89S
LIMA           CLEAR     57  52  83 S3        29.91F
$$

OHZ009>014-019>023-028>033-038-089-300700-
   NORTHEAST OHIO

CITY           SKY/WX    TMP DP  RH WIND       PRES   REMARKS
CLE-HOPKINS    PTCLDY    55  52  89 SW3       29.90F
CLE-LAKEFRONT  CLEAR     62  54  74 SE12      29.87F
CUY CO. ARPT   NOT AVBL
LORAIN-ELYRIA  CLEAR     60  54  80 SW5       29.89F
ASHTABULA      CLEAR     54  52  93 CALM      29.91S FOG
AKRON-CANTON   CLEAR     60  53  77 CALM      29.91F
WOOSTER        CLEAR     51  46  83 CALM      29.92S
MANSFIELD      CLEAR     55  53  93 S5        29.92S
YOUNGSTOWN     CLEAR     56  53  90 CALM      29.91S
$$

OHZ042-051>053-060>062-070>072-077>081-300700-
  SOUTHWEST OHIO

CITY           SKY/WX    TMP DP  RH WIND       PRES   REMARKS
CINC-COVINGTON CLEAR     57  53  86 CALM      29.94S
CINC-LUNKEN    CLEAR     54  53  97 CALM      29.94S FOG
HAMILTON       CLEAR     51  50  96 CALM      29.95S
DAYTON         CLEAR     62  49  62 CALM      29.94S
WRIGHT-PAT AFB CLEAR     54  50  88 CALM      29.93S
DAYTON GENERAL CLEAR     60  49  66 CALM      29.93S
WILMINGTON     CLEAR     52  48  86 CALM      29.93F
$$

OHZ036-037-039>041-045>050-054>059-063>069-073>076-082>088-300700-
  CENTRAL AND SOUTHEAST OHIO

CITY           SKY/WX    TMP DP  RH WIND       PRES   REMARKS
COLUMBUS       CLEAR     55  50  83 CALM      29.91S
OSU AIRPORT    CLEAR     57  51  80 W3        29.91F
BOLTON FIELD   CLEAR     52  48  87 CALM      29.92S
RICKENBACK AFB CLEAR     54  49  83 CALM      29.92S
NEWARK         FOG       48  47  96 CALM      29.91S VSB 1/4
MARION         CLEAR     53  48  83 S5        29.91F
LANCASTER      CLEAR     49  46  90 CALM      29.92S
ZANESVILLE     FOG       53  51  93 CALM      29.91S VSB 1/2
NEW PHILLY     CLEAR     53  53 100 CALM      29.92S FOG
$$


USA.gov is the U.S. government's official web portal to all federal, state and local government web resources and services.